Date String (YYYY-MM-DD hh:mm:ss) UTC,Instrument flags,absolute air pressure of the measurement (hPa),sample flow rate (lpm),inlet stack bypass flow (lpm),air temperature of the measurement (°C),ambient temperature measured by the external sensor (°C),aerosol sample conditioner tube jacket temperature (°C),OPC LED temperature (°C),internal box temperature (°C),relative humidity of the measurement (%),span deviation,mass concentration of particles derived from Lorenz-Mie calculation of OPC scattering (μg/m³),mass concentration of particles derived from Lorenz-Mie calculation of OPC scattering (μg/m³),mass concentration of particles derived from Lorenz-Mie calculation of OPC scattering (μg/m³)
DateTimeUTC,F1_M11,P_M11,Q1_M11,Q2_M11,T1_M11,T2_M11,T3_M11,T4_M11,T5_M11,U1_M11,ZSPAN_M11,X2_M11,X0_M11,X1_M11
2023-12-15 01:00:00,SystemResetWarning,0832.0,5.00,000.00,019.4,018.6,000.0,027.8,020.7,22.9,0000.5,0018.58,0027.54,0017.77
2023-12-15 01:01:00,SystemResetWarning,0832.1,5.00,000.00,019.4,018.6,000.0,027.8,020.7,22.9,0000.5,0018.57,0027.47,0017.77
2023-12-15 01:02:00,SystemResetWarning,0832.1,5.00,000.00,019.4,018.6,000.0,027.8,020.7,22.9,0000.7,0018.58,0027.34,0017.80
2023-12-15 01:03:00,SystemResetWarning,0832.0,4.99,000.00,019.4,018.6,000.0,027.8,020.7,22.9,0000.6,0018.59,0027.40,0017.81
2023-12-15 01:04:00,SystemResetWarning,0832.0,4.99,000.00,019.4,018.6,000.0,027.8,020.7,22.9,0000.7,0018.61,0027.59,0017.80
2023-12-15 01:05:00,SystemResetWarning,0832.1,5.00,000.00,019.4,018.6,000.0,027.8,020.7,22.9,0000.6,0018.64,0027.77,0017.79
2023-12-15 01:06:00,SystemResetWarning,0832.1,5.00,000.00,019.4,018.5,000.0,027.8,020.6,22.9,0000.6,0018.65,0027.74,0017.79
2023-12-15 01:07:00,SystemResetWarning,0832.0,5.00,000.00,019.4,018.5,000.0,027.8,020.7,22.9,0000.5,0018.67,0027.84,0017.81
2023-12-15 01:08:00,SystemResetWarning,0832.0,4.99,000.00,019.4,018.5,000.0,027.8,020.7,22.9,0000.7,0018.70,0027.92,0017.83
2023-12-15 01:09:00,SystemResetWarning,0832.0,4.99,000.00,019.4,018.5,000.0,027.8,020.7,22.9,0000.8,0018.74,0027.55,0017.84
2023-12-15 01:10:00,SystemResetWarning,0832.0,5.00,000.00,019.4,018.5,000.0,027.8,020.6,22.9,0000.8,0018.72,0027.98,0017.85
2023-12-15 01:11:00,SystemResetWarning,0832.0,5.00,000.00,019.4,018.5,000.0,027.8,020.6,22.9,0000.8,0018.70,0026.52,0017.86
2023-12-15 01:12:00,SystemResetWarning,0831.9,5.00,000.00,019.4,018.5,000.0,027.8,020.6,22.9,0000.9,0018.75,0026.60,0017.89
2023-12-15 01:13:00,SystemResetWarning,0832.0,5.00,000.00,019.4,018.5,000.0,027.8,020.6,22.9,0000.7,0018.77,0027.00,0017.90
2023-12-15 01:14:00,SystemResetWarning,0832.0,4.99,000.00,019.4,018.4,000.0,027.7,020.6,22.9,0000.8,0018.76,0026.96,0017.89
2023-12-15 01:15:00,SystemResetWarning,0832.0,5.00,000.00,019.3,018.4,000.0,027.7,020.6,23.0,0000.8,0018.71,0026.72,0017.89
2023-12-15 01:16:00,SystemResetWarning,0832.0,5.00,000.00,019.3,018.4,000.0,027.7,020.6,23.0,0000.7,0018.71,0026.61,0017.90
2023-12-15 01:17:00,SystemResetWarning,0832.0,5.00,000.00,019.3,018.4,000.0,027.7,020.6,23.0,0000.8,0018.72,0026.68,0017.91
2023-12-15 01:18:00,SystemResetWarning,0832.0,5.00,000.00,019.3,018.4,000.0,027.7,020.6,23.1,0000.9,0018.73,0026.68,0017.93
2023-12-15 01:19:00,SystemResetWarning,0832.0,5.01,000.00,019.3,018.4,000.0,027.7,020.5,23.1,0000.8,0018.68,0026.61,0017.91
2023-12-15 01:20:00,SystemResetWarning,0832.0,5.00,000.00,019.3,018.4,000.0,027.7,020.5,23.0,0000.7,0018.68,0026.83,0017.92
2023-12-15 01:21:00,SystemResetWarning,0832.0,5.00,000.00,019.3,018.4,000.0,027.7,020.5,23.1,0000.5,0018.68,0026.53,0017.92
2023-12-15 01:22:00,SystemResetWarning,0832.0,4.99,000.00,019.3,018.4,000.0,027.7,020.5,23.1,0000.5,0018.73,0026.74,0017.93
2023-12-15 01:23:00,SystemResetWarning,0832.0,5.00,000.00,019.3,018.4,000.0,027.7,020.4,23.1,0000.6,0018.73,0027.00,0017.93
2023-12-15 01:24:00,SystemResetWarning,0832.0,4.99,000.00,019.3,018.4,000.0,027.7,020.4,23.1,0000.8,0018.67,0026.71,0017.89
2023-12-15 01:25:00,SystemResetWarning,0832.0,5.00,000.00,019.2,018.4,000.0,027.7,020.3,23.1,0000.7,0018.67,0026.65,0017.90
2023-12-15 01:26:00,SystemResetWarning,0832.0,5.01,000.00,019.2,018.3,000.0,027.7,020.3,23.2,0000.6,0018.70,0026.69,0017.92
2023-12-15 01:27:00,SystemResetWarning,0832.0,5.00,000.00,019.2,018.3,000.0,027.6,020.3,23.2,0000.7,0018.69,0026.65,0017.91
2023-12-15 01:28:00,SystemResetWarning,0832.1,5.00,000.00,019.2,018.3,000.0,027.6,020.3,23.2,0000.7,0018.69,0026.56,0017.92
2023-12-15 01:29:00,SystemResetWarning,0832.0,5.00,000.00,019.2,018.3,000.0,027.6,020.4,23.2,0000.6,0018.68,0026.49,0017.92
2023-12-15 01:30:00,SystemResetWarning,0832.1,5.00,000.00,019.2,018.3,000.0,027.6,020.3,23.2,0000.6,0018.71,0026.54,0017.93
2023-12-15 01:31:00,SystemResetWarning,0832.0,4.99,000.00,019.2,018.3,000.0,027.6,020.3,23.2,0000.6,0018.71,0026.41,0017.92
2023-12-15 01:32:00,SystemResetWarning,0832.0,5.00,000.00,019.1,018.3,000.0,027.6,020.3,23.2,0000.7,0018.74,0025.95,0017.95
2023-12-15 01:33:00,SystemResetWarning,0832.0,4.99,000.00,019.1,018.3,000.0,027.6,020.4,23.2,0000.8,0018.75,0025.62,0017.95
2023-12-15 01:34:00,SystemResetWarning,0832.0,5.01,000.00,019.1,018.3,000.0,027.6,020.4,23.2,0000.8,0018.77,0025.48,0017.96
2023-12-15 01:35:00,SystemResetWarning,0832.0,5.00,000.00,019.1,018.3,000.0,027.6,020.4,23.2,0000.8,0018.85,0025.97,0018.03
2023-12-15 01:36:00,SystemResetWarning,0832.0,5.00,000.00,019.1,018.3,000.0,027.6,020.3,23.2,0000.8,0018.90,0026.36,0018.06
2023-12-15 01:37:00,SystemResetWarning,0832.0,5.01,000.00,019.1,018.3,000.0,027.5,020.3,23.2,0000.9,0018.87,0026.45,0018.04
2023-12-15 01:38:00,SystemResetWarning,0832.0,5.00,000.00,019.1,018.3,000.0,027.5,020.3,23.2,0000.9,0018.88,0026.63,0018.06
2023-12-15 01:39:00,SystemResetWarning,0832.0,5.01,000.00,019.1,018.2,000.0,027.5,020.3,23.2,0001.0,0018.88,0026.61,0018.06
2023-12-15 01:40:00,SystemResetWarning,0832.0,5.00,000.00,019.1,018.2,000.0,027.5,020.3,23.2,0001.1,0018.90,0026.66,0018.06
2023-12-15 01:41:00,SystemResetWarning,0832.0,4.99,000.00,019.1,018.2,000.0,027.5,020.2,23.2,0001.1,0018.99,0027.44,0018.12
2023-12-15 01:42:00,SystemResetWarning,0832.0,4.99,000.00,019.1,018.2,000.0,027.5,020.3,23.2,0001.0,0019.03,0027.69,0018.15
2023-12-15 01:43:00,SystemResetWarning,0832.0,4.99,000.00,019.1,018.2,000.0,027.5,020.2,23.2,0001.1,0019.07,0027.83,0018.17
2023-12-15 01:44:00,SystemResetWarning,0832.0,4.99,000.00,019.0,018.2,000.0,027.5,020.2,23.2,0001.1,0019.04,0027.67,0018.16
2023-12-15 01:45:00,SystemResetWarning,0832.0,5.00,000.00,019.0,018.2,000.0,027.5,020.2,23.3,0001.0,0019.01,0027.49,0018.16
2023-12-15 01:46:00,SystemResetWarning,0832.0,5.01,000.00,019.0,018.2,000.0,027.4,020.2,23.3,0000.9,0018.99,0027.10,0018.12
2023-12-15 01:47:00,SystemResetWarning,0832.0,5.01,000.00,019.0,018.2,000.0,027.4,020.2,23.3,0001.0,0019.01,0027.22,0018.09
2023-12-15 01:48:00,SystemResetWarning,0832.0,5.00,000.00,019.0,018.1,000.0,027.4,020.2,23.3,0000.8,0019.06,0027.58,0018.11
2023-12-15 01:49:00,SystemResetWarning,0832.0,4.99,000.00,019.0,018.1,000.0,027.4,020.2,23.3,0000.8,0019.16,0027.89,0018.14
2023-12-15 01:50:00,SystemResetWarning,0832.0,4.99,000.00,019.0,018.1,000.0,027.4,020.2,23.3,0000.7,0019.22,0028.61,0018.18
2023-12-15 01:51:00,SystemResetWarning,0832.1,4.99,000.00,019.0,018.1,000.0,027.4,020.1,23.3,0000.7,0019.25,0028.75,0018.20
2023-12-15 01:52:00,SystemResetWarning,0832.0,5.01,000.00,019.0,018.1,000.0,027.4,020.1,23.4,0000.6,0019.20,0028.06,0018.18
2023-12-15 01:53:00,SystemResetWarning,0832.1,5.00,000.00,019.0,018.1,000.0,027.4,020.2,23.4,0000.6,0019.19,0027.93,0018.16
2023-12-15 01:54:00,SystemResetWarning,0832.0,5.00,000.00,019.0,018.1,000.0,027.4,020.1,23.4,0000.5,0019.18,0027.67,0018.17
2023-12-15 01:55:00,SystemResetWarning,0832.1,5.00,000.00,019.0,018.1,000.0,027.4,020.1,23.4,0000.4,0019.20,0027.64,0018.22
2023-12-15 01:56:00,SystemResetWarning,0832.1,5.00,000.00,018.9,018.1,000.0,027.4,020.1,23.4,0000.5,0019.27,0027.71,0018.29
2023-12-15 01:57:00,SystemResetWarning,0832.1,5.01,000.00,018.9,018.1,000.0,027.3,020.1,23.3,0000.6,0019.32,0027.91,0018.35
2023-12-15 01:58:00,SystemResetWarning,0832.1,5.00,000.00,018.9,018.1,000.0,027.3,020.1,23.4,0000.5,0019.40,0028.25,0018.42
2023-12-15 01:59:00,SystemResetWarning,0832.0,5.00,000.00,018.9,018.0,000.0,027.3,020.1,23.4,0000.6,0019.43,0028.45,0018.45
